When you browse on this site, cookies collect data to enhance your experience and personalize the content and advertising you see.
Visit our Privacy Policy to learn more. By continuing to use the site, you agree to this use of cookies and data.
  • In Romania
  • List of Countries
  • For 7 days
  • Water Temperature
  • Satellite Maps
  • Weather Map
  • Weather Widgets
  • user-avatar
    Login

    Hourly Weather Mérida

    Today, 26 April, Friday

    Time Temperature Precipitation Wind Pressure Humidity
    00:00 +18°C° 1.3 mm 1 mps 594 mmHg 87%
    01:00 +18°C° 1.3 mm 1 mps 594 mmHg 86%
    02:00 +18°C° 1.5 mm 1 mps 594 mmHg 86%
    03:00 +16°C° 1.5 mm 1 mps 593 mmHg 85%
    04:00 +16°C° 1.5 mm 1 mps 593 mmHg 85%
    05:00 +18°C° 1 mm 1 mps 594 mmHg 84%
    06:00 +18°C° 1 mm 1 mps 594 mmHg 83%
    07:00 +18°C° 1 mm 1 mps 594 mmHg 82%
    08:00 +19°C° 0.8 mm 1 mps 595 mmHg 81%
    09:00 +19°C° 0.8 mm 1 mps 595 mmHg 81%
    10:00 +20°C° 0.8 mm 1 mps 596 mmHg 80%
    11:00 +20°C° 1.6 mm 1 mps 595 mmHg 81%
    12:00 +20°C° 1.6 mm 1 mps 594 mmHg 82%
    13:00 +20°C° 1.6 mm 1 mps 594 mmHg 83%
    14:00 +19°C° 3.1 mm 1 mps 593 mmHg 85%
    15:00 +19°C° 3.1 mm 1 mps 592 mmHg 87%
    16:00 +19°C° 3.1 mm 1 mps 592 mmHg 89%
    17:00 +18°C° 3 mm 1 mps 592 mmHg 89%
    18:00 +18°C° 3 mm 1 mps 592 mmHg 89%
    19:00 +18°C° 3 mm 1 mps 592 mmHg 89%
    20:00 +18°C° 1.4 mm 1 mps 593 mmHg 88%
    21:00 +16°C° 1.4 mm 1 mps 593 mmHg 87%
    22:00 +16°C° 1.4 mm 1 mps 594 mmHg 86%
    23:00 +16°C° 1.1 mm 1 mps 593 mmHg 86%

    Tomorrow, 27 April, Saturday

    Time Temperature Precipitation Wind Pressure Humidity
    00:00 +16°C° 1.1 mm 1 mps 593 mmHg 86%
    01:00 +16°C° 1.1 mm 1 mps 592 mmHg 86%
    02:00 +16°C° 1.1 mm 2 mps 592 mmHg 85%
    03:00 +16°C° 1.1 mm 2 mps 592 mmHg 85%
    04:00 +15°C° 1.1 mm 2 mps 592 mmHg 85%
    05:00 +16°C° 1.6 mm 2 mps 592 mmHg 84%
    06:00 +16°C° 1.6 mm 2 mps 593 mmHg 84%
    07:00 +17°C° 1.6 mm 2 mps 594 mmHg 83%
    08:00 +17°C° 2.6 mm 2 mps 594 mmHg 82%
    09:00 +18°C° 2.6 mm 2 mps 595 mmHg 81%
    10:00 +19°C° 2.6 mm 2 mps 595 mmHg 80%
    11:00 +20°C° 2 mm 1 mps 595 mmHg 81%
    12:00 +20°C° 2 mm 1 mps 594 mmHg 82%
    13:00 +20°C° 2 mm 1 mps 593 mmHg 82%
    14:00 +20°C° 2 mm 1 mps 593 mmHg 84%
    15:00 +20°C° 2 mm 1 mps 592 mmHg 86%
    16:00 +20°C° 2 mm 1 mps 592 mmHg 87%
    17:00 +19°C° 1.4 mm 1 mps 592 mmHg 88%
    18:00 +19°C° 1.4 mm 1 mps 592 mmHg 89%
    19:00 +18°C° 1.4 mm 1 mps 593 mmHg 90%
    20:00 +18°C° 1.4 mm 1 mps 593 mmHg 89%
    21:00 +18°C° 1.4 mm 1 mps 593 mmHg 88%
    22:00 +18°C° 1.4 mm 1 mps 594 mmHg 87%
    23:00 +16°C° 2.4 mm 1 mps 593 mmHg 87%

    Day after tomorrow, 28 April, Sunday

    Time Temperature Precipitation Wind Pressure Humidity
    00:00 +16°C° 2.4 mm 2 mps 593 mmHg 87%
    01:00 +16°C° 2.4 mm 2 mps 592 mmHg 87%
    02:00 +16°C° 2.7 mm 2 mps 592 mmHg 87%
    03:00 +16°C° 2.7 mm 2 mps 592 mmHg 88%
    04:00 +16°C° 2.7 mm 2 mps 592 mmHg 88%
    05:00 +16°C° 1.1 mm 2 mps 592 mmHg 87%
    06:00 +16°C° 1.1 mm 2 mps 593 mmHg 86%
    07:00 +16°C° 1.1 mm 2 mps 593 mmHg 85%
    08:00 +18°C° 0.2 mm 2 mps 594 mmHg 80%
    09:00 +19°C° 0.2 mm 2 mps 595 mmHg 76%
    10:00 +21°C° 0.2 mm 2 mps 596 mmHg 71%
    11:00 +21°C° 0.7 mm 2 mps 595 mmHg 70%
    12:00 +21°C° 0.7 mm 2 mps 595 mmHg 68%
    13:00 +23°C° 0.7 mm 2 mps 595 mmHg 67%
    14:00 +21°C° 1.4 mm 2 mps 594 mmHg 69%
    15:00 +20°C° 1.4 mm 2 mps 593 mmHg 72%
    16:00 +21°C° 1.4 mm 1 mps 593 mmHg 74%
    17:00 +20°C° 0.6 mm 1 mps 593 mmHg 78%
    18:00 +19°C° 0.6 mm 1 mps 593 mmHg 81%
    19:00 +18°C° 0.6 mm 1 mps 593 mmHg 84%
    20:00 +18°C° 0.1 mm 1 mps 593 mmHg 80%
    21:00 +17°C° 0.1 mm 2 mps 593 mmHg 76%
    22:00 +16°C° 0.1 mm 2 mps 593 mmHg 72%
    23:00 +16°C° 0 mm 2 mps 593 mmHg 69%

    29 April, Monday

    Time Temperature Precipitation Wind Pressure Humidity
    00:00 +16°C° 0 mm 2 mps 592 mmHg 66%
    01:00 +15°C° 0 mm 2 mps 592 mmHg 63%
    02:00 +15°C° 0 mm 2 mps 591 mmHg 62%
    03:00 +13°C° 0 mm 3 mps 591 mmHg 61%
    04:00 +13°C° 0 mm 3 mps 591 mmHg 59%
    05:00 +14°C° 0 mm 3 mps 592 mmHg 59%
    06:00 +16°C° 0 mm 3 mps 593 mmHg 59%
    07:00 +17°C° 0 mm 3 mps 594 mmHg 59%
    08:00 +19°C° 0 mm 3 mps 595 mmHg 56%
    09:00 +21°C° 0 mm 3 mps 596 mmHg 54%
    10:00 +24°C° 0 mm 2 mps 597 mmHg 51%
    11:00 +24°C° 0.2 mm 2 mps 596 mmHg 53%
    12:00 +24°C° 0.2 mm 2 mps 595 mmHg 54%
    13:00 +24°C° 0.2 mm 2 mps 595 mmHg 56%
    14:00 +23°C° 0.2 mm 2 mps 594 mmHg 57%
    15:00 +23°C° 0.2 mm 2 mps 594 mmHg 59%
    16:00 +21°C° 0.2 mm 2 mps 593 mmHg 61%
    17:00 +20°C° 0.1 mm 1 mps 593 mmHg 66%
    18:00 +19°C° 0.1 mm 1 mps 592 mmHg 70%
    19:00 +16°C° 0.1 mm 1 mps 592 mmHg 75%
    20:00 +16°C° 0 mm 1 mps 592 mmHg 69%
    21:00 +15°C° 0 mm 2 mps 593 mmHg 63%
    22:00 +15°C° 0 mm 2 mps 593 mmHg 57%
    23:00 +15°C° 0 mm 2 mps 593 mmHg 54%

    30 April, Tuesday

    Time Temperature Precipitation Wind Pressure Humidity
    00:00 +15°C° 0 mm 2 mps 592 mmHg 52%
    01:00 +14°C° 0 mm 3 mps 592 mmHg 50%
    02:00 +13°C° 0 mm 3 mps 592 mmHg 53%
    03:00 +13°C° 0 mm 3 mps 592 mmHg 55%
    04:00 +13°C° 0 mm 3 mps 592 mmHg 57%
    05:00 +14°C° 0 mm 3 mps 593 mmHg 58%
    06:00 +17°C° 0 mm 3 mps 594 mmHg 59%
    07:00 +18°C° 0 mm 3 mps 595 mmHg 60%
    08:00 +19°C° 0 mm 3 mps 595 mmHg 59%
    09:00 +21°C° 0 mm 2 mps 596 mmHg 57%
    10:00 +24°C° 0 mm 2 mps 597 mmHg 56%
    11:00 +24°C° 0.2 mm 2 mps 596 mmHg 56%
    12:00 +24°C° 0.2 mm 2 mps 596 mmHg 56%
    13:00 +24°C° 0.2 mm 2 mps 595 mmHg 55%
    14:00 +23°C° 0.3 mm 2 mps 595 mmHg 55%
    15:00 +23°C° 0.3 mm 2 mps 594 mmHg 55%
    16:00 +21°C° 0.3 mm 2 mps 593 mmHg 55%
    17:00 +20°C° 0.2 mm 2 mps 593 mmHg 58%
    18:00 +19°C° 0.2 mm 1 mps 593 mmHg 61%
    19:00 +16°C° 0.2 mm 1 mps 593 mmHg 64%
    20:00 +16°C° 0 mm 2 mps 593 mmHg 58%
    21:00 +16°C° 0 mm 2 mps 593 mmHg 52%
    22:00 +15°C° 0 mm 2 mps 593 mmHg 46%
    23:00 +15°C° 0 mm 2 mps 593 mmHg 46%

    1 May, Wednesday

    Time Temperature Precipitation Wind Pressure Humidity
    00:00 +14°C° 0 mm 3 mps 593 mmHg 46%
    01:00 +14°C° 0 mm 3 mps 592 mmHg 46%
    02:00 +14°C° 0 mm 3 mps 592 mmHg 50%
    03:00 +14°C° 0 mm 3 mps 592 mmHg 53%
    04:00 +14°C° 0 mm 3 mps 592 mmHg 57%
    05:00 +16°C° 0 mm 3 mps 593 mmHg 59%
    06:00 +17°C° 0 mm 3 mps 594 mmHg 61%
    07:00 +18°C° 0 mm 2 mps 595 mmHg 63%
    08:00 +20°C° 0 mm 2 mps 596 mmHg 60%
    09:00 +21°C° 0 mm 2 mps 597 mmHg 57%
    10:00 +24°C° 0 mm 2 mps 597 mmHg 54%
    11:00 +24°C° 0.2 mm 2 mps 597 mmHg 53%
    12:00 +24°C° 0.2 mm 2 mps 596 mmHg 52%
    13:00 +24°C° 0.2 mm 2 mps 595 mmHg 51%
    14:00 +23°C° 0.3 mm 2 mps 595 mmHg 51%
    15:00 +23°C° 0.3 mm 2 mps 594 mmHg 51%
    16:00 +21°C° 0.3 mm 2 mps 594 mmHg 50%
    17:00 +20°C° 0.1 mm 2 mps 593 mmHg 51%
    18:00 +18°C° 0.1 mm 2 mps 593 mmHg 52%
    19:00 +17°C° 0.1 mm 2 mps 593 mmHg 53%
    20:00 +17°C° 0 mm 2 mps 593 mmHg 47%
    21:00 +16°C° 0 mm 2 mps 593 mmHg 41%
    22:00 +16°C° 0 mm 2 mps 593 mmHg 36%
    23:00 +16°C° 0 mm 2 mps 593 mmHg 39%
    Show more